STARLINK-5212, 54075

Orbit data source: Space-Track

STARLINK-5212, 54075 is a payload satellite owned by SpaceX/Seattle (US) in LEO that was launched on Thu, 20 Oct 2022 UTC via an FALCON 9 launch vehicle from the Air Force Eastern Test Range (AFETR). Payload-class satellites include a variety of spacecraft equipped with specific instruments for various scientific and technological missions. These include communications satellites like Starlink; space stations such as the ISS; scientific satellites like the Hubble; Earth observation satellites from companies like Planet Labs, Umbra, and HawkEye 360; GPS; miniature CubeSats for education and research; and military/defense satellites.

Loading next visibility...
Identifier
54075, 2022-136AA
Orbit
LEO
Last TLE update
14 hours ago
Origin
Manufacturer
SpaceX/Seattle
Mission
Operational Commercial Communications
Bus & Motor
STARLINK, Unknown motor
Mass
305 kg wet, ~290 kg dry
Launch date (UTC)
2022-10-20 (3 years ago)
Launch vehicle
FALCON 9
Launch site
Air Force Eastern Test Range (AFETR)
Object type
Payload
Rocket body
Debris
Shape & HBR
Box + 1 Pan, 8.86 m
Radar Cross Section
13.562 m², Large (>1 m²)

Expand to show TLE details & history

TLE from 14 hours ago
0 STARLINK-5212
1 54075U 22136AA  25181.87173130 -.00000110  00000-0  11149-4 0  9995
2 54075  53.2182  29.1911 0001327  91.9009 268.2135 15.08833066148907
Epoch: 2025-06-30T20:55Z
TLE epoch observation values (Epoch: 2025-06-30T20:55:17.584Z)
Latitude
-0.00003°
Longitude
156.1925°
Altitude
540.691 km
Speed
7.593 km/s
True Right ascension
01h 56m 45s
True Declination
0° 00' 00"
Sunlit
Object was in daylight at epoch
Visualization orbit readout
Latitude
-12.66247°
Longitude
-16.73252°
Altitude
543.353 km
Speed
7.591 km/s
Apparent Right ascension
12h 39m 38s
Apparent Declination
-29° 20' 21"
Sunlit
Object is in full shadow
Visualization observer readout
Local Sidereal Time
22:08:39
Azimuth
277.105° WNW
Elevation
-57.47°
Doppler factor
1
Orbital elements
Apogee altitude
540.927 km
Perigee altitude
539.091 km
Semi-major axis
6,918.146 km
Eccentricity
0.00013
Inclination
53.2182°
RAAN
29.1911°
Arg. of periapsis
91.9009°
True anomaly
Unknown
Mean anomaly
268.2135°
Eccentric anomaly
Unknown
Mean motion
3.77189 °/min
Orbital period
95.44 mins
BSTAR
0.000011149
Loading maneuver chart data...
Loading SW <> Apogee altitude chart data...
Loading historical data...
Loading historical data...
Loading historical data...
Loading historical data...
Loading historical data...
Loading historical data...
Loading historical data...

STARLINK-5212 Visibility forecast

Observer location: undefined°, undefined°

Span
Click to sort rows by Start time (UTC) header in descending order
Start Az.
Max El. time (UTC)
Max El. Az.
Max El.
End time (UTC)
End Az.
7 mins2025-07-01 16:09:11.863Z212.94° SW2025-07-01 16:13:11.863Z127.36° SE39.328°2025-07-01 16:16:11.863Z60.693° ENE
5 mins2025-07-01 17:50:11.863Z284.316° WNW2025-07-01 17:52:11.863Z321.938° NNW23.725°2025-07-01 17:55:11.863Z23.684° NE
6 mins2025-07-01 22:51:11.863Z323.494° NNW2025-07-01 22:54:11.863Z54.227° ENE38.188°2025-07-01 22:57:11.863Z111.312° ESE
4 mins2025-07-02 00:31:11.863Z265.413° W2025-07-02 00:33:11.863Z226.491° WSW19.471°2025-07-02 00:35:11.863Z191.41° SSW
|